Location: El Portezuelo
(28.4984°N, 16.3589°W)
Time: 12:11:52
(UTC+00:00)

Cosmos 1606 Rocket - Pass Details

Date: 20 January 2020
Orbit: 602 x 633 km, 82.5° (Epoch: 17 February)

Event Time Altitude Azimuth Distance (km) Brightness Sun altitude
Rises 06:46:45 0° 190° (S) 2,910 7.1 -15.7°
Reaches altitude 10° 06:48:59 10° 193° (SSW) 2,004 6.2 -15.2°
Maximum altitude 06:53:24 67° 276° (W) 682 3.5 -14.3°
Drops below altitude 10° 06:57:50 10° 360° (N) 2,003 6.0 -13.4°
Sets 07:00:05 0° 3° (N) 2,909 6.9 -12.9°
